GW4386 Weather Reports


Display with metric or nautical units.
time (UTC)temp
F
wind
direction
speed
MPH
gust
MPH
rain 1hr
in
rain 24hr
in
rain mn
in
humidity
%
barometer
mb
20260831112058 76 189 4.0 8.0 0.00 0.00 0.00 59 1013.9
20260831111612 76 192 3.0 5.0 0.00 0.00 0.00 62 1013.9
20260831111058 76 198 0.0 4.0 0.00 0.00 0.00 62 1013.8
20260831110600 75 136 1.0 5.0 0.00 0.00 0.00 65 1013.8
20260831110103 75 171 2.0 5.0 0.00 0.00 0.00 65 1013.9
20260831105558 74 197 2.0 5.0 0.00 0.00 0.00 64 1014.0
20260831105103 75 189 2.0 5.0 0.00 0.00 0.00 64 1013.9
20260831104602 75 197 1.0 5.0 0.00 0.00 0.00 62 1013.9
20260831104101 75 220 2.0 5.0 0.00 0.00 0.00 62 1013.9
20260831103558 76 216 1.0 5.0 0.00 0.00 0.00 65 1013.8
20260831103105 75 214 0.0 4.0 0.00 0.00 0.00 64 1014.0
20260831102558 75 275 1.0 4.0 0.00 0.00 0.00 66 1014.2
20260831102059 75 191 1.0 6.0 0.00 0.00 0.00 64 1014.1
20260831101559 74 252 2.0 7.0 0.00 0.00 0.00 67 1014.1
20260831101058 74 229 3.0 7.0 0.00 0.00 0.00 66 1014.2
20260831100601 74 242 2.0 6.0 0.00 0.00 0.00 65 1014.2
20260831100108 74 229 0.0 6.0 0.00 0.00 0.00 64 1014.2
20260831100002 74 207 1.0 6.0 0.00 0.00 0.00 64 1014.2
20260831095602 74 228 3.0 7.0 0.00 0.00 0.00 64 1014.2
20260831095059 74 209 2.0 6.0 0.00 0.00 0.00 65 1014.2
20260831095002 74 225 2.0 6.0 0.00 0.00 0.00 66 1014.2
20260831094604 74 214 2.0 7.0 0.00 0.00 0.00 66 1014.1
20260831094101 74 202 2.0 6.0 0.00 0.00 0.00 64 1014.1
20260831093558 74 205 2.0 6.0 0.00 0.00 0.00 65 1014.2
20260831093058 74 186 3.0 6.0 0.00 0.00 0.00 65 1014.1
20260831092558 74 275 4.0 6.0 0.00 0.00 0.00 65 1014.1
20260831092105 74 218 3.0 6.0 0.00 0.00 0.00 65 1014.2
20260831091603 75 142 1.0 5.0 0.00 0.00 0.00 64 1014.1
20260831091059 75 163 2.0 7.0 0.00 0.00 0.00 64 1014.1
20260831090559 74 103 1.0 7.0 0.00 0.00 0.00 67 1014.1
20260831090058 75 207 3.0 6.0 0.00 0.00 0.00 66 1014.1
20260831085601 76 103 0.0 4.0 0.00 0.00 0.00 68 1014.0
20260831085059 75 94 1.0 4.0 0.00 0.00 0.00 69 1014.2
20260831084603 73 179 1.0 5.0 0.00 0.00 0.00 71 1014.3
20260831084058 72 221 1.0 5.0 0.00 0.00 0.00 73 1014.4
20260831083559 72 166 1.0 5.0 0.00 0.00 0.00 71 1014.4
20260831083101 72 205 2.0 6.0 0.00 0.00 0.00 72 1014.4
20260831082558 72 160 3.0 6.0 0.00 0.00 0.00 72 1014.3
20260831082059 71 240 2.0 5.0 0.00 0.00 0.00 74 1014.4
20260831081604 71 172 2.0 6.0 0.00 0.00 0.00 75 1014.4
20260831081058 71 190 1.0 5.0 0.00 0.00 0.00 75 1014.4
20260831080557 71 217 2.0 5.0 0.00 0.00 0.00 74 1014.4
20260831080136 71 225 2.0 5.0 0.00 0.00 0.00 74 1014.4
20260831080000 71 237 1.0 5.0 0.00 0.00 0.00 75 1014.4
20260831075557 71 213 1.0 5.0 0.00 0.00 0.00 74 1014.4
20260831075101 71 138 0.0 5.0 0.00 0.00 0.00 75 1014.4
20260831074559 71 207 2.0 5.0 0.00 0.00 0.00 74 1014.4
20260831074059 70 165 0.0 4.0 0.00 0.00 0.00 75 1014.5
20260831073558 70 135 1.0 5.0 0.00 0.00 0.00 76 1014.6
20260831073115 70 144 2.0 5.0 0.00 0.00 0.00 78 1014.5
20260831072558 69 218 0.0 4.0 0.00 0.00 0.00 78 1014.5
20260831072059 68 211 1.0 4.0 0.00 0.00 0.00 80 1014.5
20260831071559 68 228 0.0 4.0 0.00 0.00 0.00 81 1014.4
20260831071101 67 297 1.0 4.0 0.00 0.00 0.00 83 1014.4
20260831070557 66 160 0.0 4.0 0.00 0.00 0.00 83 1014.4
20260831070058 66 186 0.0 2.0 0.00 0.00 0.00 84 1014.3
20260831065559 65 78 0.0 1.0 0.00 0.00 0.00 85 1014.4
20260831065058 65 152 0.0 3.0 0.00 0.00 0.00 86 1014.5
20260831064557 64 161 1.0 3.0 0.00 0.00 0.00 87 1014.6
20260831064059 63 139 1.0 3.0 0.00 0.00 0.00 88 1014.7
20260831063603 63 138 0.0 3.0 0.00 0.00 0.00 88 1014.6
20260831063057 63 156 0.0 3.0 0.00 0.00 0.00 88 1014.7
20260831062558 63 196 0.0 3.0 0.00 0.00 0.00 88 1014.7
20260831062058 62 195 1.0 4.0 0.00 0.00 0.00 88 1014.6
20260831061558 62 180 0.0 4.0 0.00 0.00 0.00 88 1014.5
20260831061058 61 169 2.0 4.0 0.00 0.00 0.00 87 1014.6
20260831060559 61 153 1.0 4.0 0.00 0.00 0.00 86 1014.7
20260831060100 60 199 3.0 5.0 0.00 0.00 0.00 85 1014.6
20260831055558 60 207 2.0 5.0 0.00 0.00 0.00 84 1014.5
20260831055057 60 184 1.0 4.0 0.00 0.00 0.00 83 1014.6
20260831054558 59 196 1.0 4.0 0.00 0.00 0.00 83 1014.6
20260831054058 58 201 0.0 3.0 0.00 0.00 0.00 83 1014.6
20260831053558 58 238 0.0 3.0 0.00 0.00 0.00 84 1014.6
20260831053059 57 211 1.0 3.0 0.00 0.00 0.00 84 1014.6
20260831052559 57 212 0.0 0.0 0.00 0.00 0.00 84 1014.6
20260831052102 56 44 0.0 0.0 0.00 0.00 0.00 84 1014.6
20260831051558 56 44 0.0 0.0 0.00 0.00 0.00 84 1014.6
20260831051058 56 44 0.0 0.0 0.00 0.00 0.00 85 1014.6
20260831050558 56 52 0.0 0.0 0.00 0.00 0.00 85 1014.6
20260831050101 56 52 0.0 0.0 0.00 0.00 0.00 85 1014.6
20260831045601 56 52 0.0 0.0 0.00 0.00 0.00 85 1014.6
20260831045056 55 52 0.0 0.0 0.00 0.00 0.00 85 1014.6
20260831044603 55 95 0.0 0.0 0.00 0.00 0.00 85 1014.6
20260831044057 55 114 0.0 0.0 0.00 0.00 0.00 85 1014.6
20260831043558 56 126 0.0 0.0 0.00 0.00 0.00 85 1014.7
20260831043057 55 126 0.0 0.0 0.00 0.00 0.00 85 1014.7
20260831042557 55 126 0.0 1.0 0.00 0.00 0.00 85 1014.6
20260831042058 56 126 0.0 1.0 0.00 0.00 0.00 85 1014.7
20260831041608 56 80 0.0 1.0 0.00 0.00 0.00 85 1014.7
20260831041105 56 129 0.0 2.0 0.00 0.00 0.00 85 1014.7
20260831040559 56 214 0.0 3.0 0.00 0.00 0.00 85 1014.7
20260831040058 56 200 0.0 4.0 0.00 0.00 0.00 85 1014.7
20260831035602 55 195 2.0 4.0 0.00 0.00 0.00 86 1014.6
20260831035058 55 194 2.0 3.0 0.00 0.00 0.00 86 1014.7
20260831034604 55 194 1.0 3.0 0.00 0.00 0.00 86 1014.7
20260831034058 55 139 0.0 1.0 0.00 0.00 0.00 86 1014.6
20260831033602 55 144 0.0 1.0 0.00 0.00 0.00 86 1014.6
20260831033058 55 176 0.0 1.0 0.00 0.00 0.00 86 1014.6
20260831032559 55 184 0.0 3.0 0.00 0.00 0.00 86 1014.5
20260831032057 56 181 0.0 3.0 0.00 0.00 0.00 86 1014.5
20260831031558 56 156 0.0 1.0 0.00 0.00 0.00 86 1014.5
20260831031058 56 123 0.0 1.0 0.00 0.00 0.00 86 1014.6
20260831030600 56 204 0.0 2.0 0.00 0.00 0.00 86 1014.7
20260831025558 56 165 0.0 1.0 0.00 0.00 0.00 86 1014.7
20260831025058 56 219 0.0 1.0 0.00 0.00 0.00 86 1014.7
20260831024606 56 213 0.0 1.0 0.00 0.00 0.00 86 1014.7
20260831024058 56 160 0.0 0.0 0.00 0.00 0.00 86 1014.7
20260831023558 56 124 0.0 0.0 0.00 0.00 0.00 86 1014.7
20260831023058 56 124 0.0 0.0 0.00 0.00 0.00 86 1014.7
20260831022603 56 124 0.0 1.0 0.00 0.00 0.00 86 1014.7
20260831022058 57 144 0.0 2.0 0.00 0.00 0.00 86 1014.7
20260831021600 56 165 0.0 2.0 0.00 0.00 0.00 86 1014.7
20260831021101 57 360 1.0 2.0 0.00 0.00 0.00 86 1014.7
20260831020558 57 198 0.0 1.0 0.00 0.00 0.00 86 1014.7
20260831020103 57 220 0.0 1.0 0.00 0.00 0.00 86 1014.6
20260831015601 57 109 0.0 0.0 0.00 0.00 0.00 86 1014.7
20260831015058 57 109 0.0 0.0 0.00 0.00 0.00 86 1014.7
20260831014559 57 147 0.0 0.0 0.00 0.00 0.00 86 1014.7
20260831014058 57 147 0.0 0.0 0.00 0.00 0.00 86 1014.7
20260831013559 57 147 0.0 0.0 0.00 0.00 0.00 87 1014.8
20260831013106 57 147 0.0 0.0 0.00 0.00 0.00 87 1014.7
20260831012558 57 147 0.0 0.0 0.00 0.00 0.00 87 1014.7
20260831012058 57 147 0.0 0.0 0.00 0.00 0.00 87 1014.8
20260831011559 57 147 0.0 0.0 0.00 0.00 0.00 87 1014.8
20260831011057 58 121 0.0 0.0 0.00 0.00 0.00 87 1014.8
20260831010558 57 227 0.0 2.0 0.00 0.00 0.00 87 1014.9
20260831010121 58 215 0.0 2.0 0.00 0.00 0.00 87 1014.9
20260831005557 58 205 0.0 2.0 0.00 0.00 0.00 87 1014.8
20260831005058 58 142 0.0 0.0 0.00 0.00 0.00 87 1014.8
20260831004606 58 142 0.0 0.0 0.00 0.00 0.00 87 1014.8
20260831004101 58 200 0.0 0.0 0.00 0.00 0.00 87 1014.8
20260831003557 58 232 0.0 0.0 0.00 0.00 0.00 87 1014.8
20260831003105 58 232 0.0 1.0 0.00 0.00 0.00 87 1014.9
20260831002557 58 194 0.0 1.0 0.00 0.00 0.00 87 1014.8
20260831002057 58 144 0.0 0.0 0.00 0.00 0.00 87 1014.8
20260831001558 58 144 0.0 0.0 0.00 0.00 0.00 88 1014.8
20260831001058 58 205 0.0 0.0 0.00 0.00 0.00 88 1014.8
20260831000557 58 171 0.0 0.0 0.00 0.00 0.00 88 1014.8
20260831000057 58 223 0.0 0.0 0.00 0.00 0.00 88 1014.8
20260830235559 58 204 0.0 0.0 0.00 0.00 0.00 88 1014.7
20260830235058 58 161 0.0 0.0 0.00 0.00 0.00 88 1014.8
20260830234557 58 161 0.0 0.0 0.00 0.00 0.00 88 1014.8
20260830234057 58 161 0.0 0.0 0.00 0.00 0.00 88 1014.8
20260830233559 58 57 0.0 0.0 0.00 0.00 0.00 88 1014.7
20260830233057 58 137 0.0 1.0 0.00 0.00 0.00 88 1014.8
20260830232558 58 130 0.0 1.0 0.00 0.00 0.00 88 1014.8
20260830232058 58 133 0.0 0.0 0.00 0.00 0.00 88 1014.7
20260830231558 58 193 0.0 0.0 0.00 0.00 0.00 88 1014.7
20260830231057 59 140 0.0 0.0 0.00 0.00 0.00 88 1014.8
20260830230558 59 137 0.0 0.0 0.00 0.00 0.00 88 1014.7
20260830230059 59 103 0.0 1.0 0.00 0.00 0.00 88 1014.7
20260830225559 59 186 0.0 2.0 0.00 0.00 0.00 88 1014.7
20260830225059 59 186 0.0 2.0 0.00 0.00 0.00 88 1014.7
20260830224604 59 174 0.0 2.0 0.00 0.00 0.00 88 1014.7
20260830224058 59 202 0.0 2.0 0.00 0.00 0.00 88 1014.6
20260830223600 59 217 0.0 3.0 0.00 0.00 0.00 88 1014.6
20260830223104 59 209 1.0 3.0 0.00 0.00 0.00 88 1014.6
20260830222558 60 211 0.0 3.0 0.00 0.00 0.00 88 1014.6
20260830222059 60 178 1.0 2.0 0.00 0.00 0.00 88 1014.6
20260830221559 60 199 0.0 2.0 0.00 0.00 0.00 88 1014.7
20260830221059 60 197 0.0 1.0 0.00 0.00 0.00 88 1014.6
20260830220559 60 216 0.0 2.0 0.00 0.00 0.00 88 1014.6
20260830215603 60 178 0.0 3.0 0.00 0.00 0.00 88 1014.6
20260830215101 60 205 1.0 3.0 0.00 0.00 0.00 88 1014.5
20260830214603 60 209 0.0 2.0 0.00 0.00 0.00 88 1014.4
20260830214058 60 207 0.0 1.0 0.00 0.00 0.00 88 1014.4
20260830213559 60 212 0.0 2.0 0.00 0.00 0.00 88 1014.4
20260830213059 60 209 0.0 2.0 0.00 0.00 0.00 88 1014.4
20260830212558 60 237 0.0 2.0 0.00 0.00 0.00 88 1014.4
20260830212059 61 194 0.0 2.0 0.00 0.00 0.00 88 1014.3
20260830211559 61 206 0.0 2.0 0.00 0.00 0.00 88 1014.3
20260830211059 61 211 0.0 2.0 0.00 0.00 0.00 88 1014.3
20260830210559 61 201 0.0 2.0 0.00 0.00 0.00 88 1014.3
20260830210059 61 213 0.0 2.0 0.00 0.00 0.00 88 1014.3
20260830205559 61 213 0.0 2.0 0.00 0.00 0.00 88 1014.3
20260830205059 61 202 0.0 2.0 0.00 0.00 0.00 88 1014.3
20260830204603 61 207 0.0 1.0 0.00 0.00 0.00 87 1014.3
20260830204059 62 204 0.0 1.0 0.00 0.00 0.00 88 1014.3
20260830203559 62 223 0.0 2.0 0.00 0.00 0.00 88 1014.3
20260830203059 62 202 0.0 2.0 0.00 0.00 0.00 87 1014.2
20260830202559 62 202 0.0 2.0 0.00 0.00 0.00 87 1014.2
20260830202059 62 202 0.0 1.0 0.00 0.00 0.00 87 1014.1
20260830201558 62 225 0.0 2.0 0.00 0.00 0.00 87 1014.1
20260830201101 62 209 0.0 2.0 0.00 0.00 0.00 87 1014.1
20260830200559 63 216 0.0 2.0 0.00 0.00 0.00 87 1014.2
20260830200059 63 222 0.0 2.0 0.00 0.00 0.00 86 1014.2
20260830195601 63 202 0.0 2.0 0.00 0.00 0.00 86 1014.2
20260830195002 63 219 0.0 1.0 0.00 0.00 0.00 86 1014.1
20260830194612 63 225 0.0 1.0 0.00 0.00 0.00 86 1014.1
20260830194102 64 129 0.0 0.0 0.00 0.00 0.00 85 1014.1
20260830193604 64 129 0.0 0.0 0.00 0.00 0.00 85 1014.1
20260830193101 64 129 0.0 0.0 0.00 0.00 0.00 85 1014.1
20260830192559 64 292 0.0 0.0 0.00 0.00 0.00 84 1014.0
20260830192100 65 290 0.0 1.0 0.00 0.00 0.00 84 1014.0
20260830191604 65 290 0.0 1.0 0.00 0.00 0.00 84 1013.9
20260830191100 65 219 0.0 0.0 0.00 0.00 0.00 83 1013.8
20260830191002 65 219 0.0 0.0 0.00 0.00 0.00 83 1013.7
20260830190600 66 219 0.0 0.0 0.00 0.00 0.00 83 1013.8
20260830190100 66 219 0.0 1.0 0.00 0.00 0.00 82 1013.8
20260830190001 66 217 0.0 1.0 0.00 0.00 0.00 82 1013.8
20260830185559 67 202 0.0 2.0 0.00 0.00 0.00 81 1013.8
20260830185059 67 188 0.0 2.0 0.00 0.00 0.00 80 1013.7
20260830184600 67 211 0.0 3.0 0.00 0.00 0.00 81 1013.7
20260830184059 67 225 0.0 3.0 0.00 0.00 0.00 81 1013.7
20260830183558 67 194 0.0 3.0 0.00 0.00 0.00 81 1013.6
20260830183059 68 225 0.0 3.0 0.00 0.00 0.00 80 1013.6
20260830182559 68 221 0.0 3.0 0.00 0.00 0.00 79 1013.5
20260830182059 69 156 0.0 4.0 0.00 0.00 0.00 78 1013.4
20260830181603 69 151 0.0 3.0 0.00 0.00 0.00 78 1013.3
20260830181059 69 228 0.0 3.0 0.00 0.00 0.00 76 1013.3
20260830180558 70 223 0.0 3.0 0.00 0.00 0.00 77 1013.2
20260830180059 70 244 0.0 3.0 0.00 0.00 0.00 76 1013.2
20260830175558 71 216 0.0 2.0 0.00 0.00 0.00 75 1013.1
20260830175058 71 216 0.0 2.0 0.00 0.00 0.00 73 1013.0
20260830174637 72 229 0.0 2.0 0.00 0.00 0.00 71 1013.0
20260830174059 72 225 0.0 3.0 0.00 0.00 0.00 71 1012.9
20260830173558 73 221 0.0 4.0 0.00 0.00 0.00 70 1012.9
20260830173059 73 191 0.0 4.0 0.00 0.00 0.00 71 1012.9
20260830172558 73 215 1.0 4.0 0.00 0.00 0.00 69 1012.8
20260830172100 73 207 1.0 3.0 0.00 0.00 0.00 70 1012.8
20260830171610 73 205 1.0 4.0 0.00 0.00 0.00 69 1012.8
20260830171057 73 174 2.0 4.0 0.00 0.00 0.00 69 1012.7
20260830170600 74 224 1.0 4.0 0.00 0.00 0.00 70 1012.7
20260830170059 74 217 1.0 4.0 0.00 0.00 0.00 70 1012.7
20260830165559 74 224 0.0 4.0 0.00 0.00 0.00 69 1012.6
20260830165059 74 196 1.0 4.0 0.00 0.00 0.00 69 1012.7
20260830164604 74 212 0.0 3.0 0.00 0.00 0.00 68 1012.6
20260830164059 74 229 0.0 3.0 0.00 0.00 0.00 68 1012.6
20260830163559 75 237 0.0 4.0 0.00 0.00 0.00 66 1012.6
20260830163102 75 152 0.0 6.0 0.00 0.00 0.00 65 1012.6
20260830162600 76 186 2.0 6.0 0.00 0.00 0.00 63 1012.6
20260830162102 77 186 3.0 6.0 0.00 0.00 0.00 61 1012.6
20260830161611 77 205 2.0 7.0 0.00 0.00 0.00 60 1012.5
20260830161058 78 197 2.0 7.0 0.00 0.00 0.00 59 1012.6
20260830160603 78 360 4.0 7.0 0.00 0.00 0.00 57 1012.5
20260830160059 78 116 3.0 7.0 0.00 0.00 0.00 58 1012.5
20260830155559 78 223 2.0 8.0 0.00 0.00 0.00 58 1012.5
20260830155059 78 205 5.0 9.0 0.00 0.00 0.00 57 1012.6
20260830154601 79 221 5.0 9.0 0.00 0.00 0.00 56 1012.6
20260830154102 79 190 3.0 10.0 0.00 0.00 0.00 56 1012.6
20260830153558 79 163 4.0 10.0 0.00 0.00 0.00 56 1012.7
20260830153104 78 198 5.0 15.0 0.00 0.00 0.00 55 1012.7
20260830152558 79 198 9.0 15.0 0.00 0.00 0.00 54 1012.7
20260830152058 79 195 7.0 13.0 0.00 0.00 0.00 54 1012.7
20260830152002 79 202 9.0 13.0 0.00 0.00 0.00 54 1012.7
20260830151600 79 216 7.0 14.0 0.00 0.00 0.00 54 1012.7
20260830151102 79 231 5.0 14.0 0.00 0.00 0.00 54 1012.7
20260830150559 79 189 5.0 12.0 0.00 0.00 0.00 53 1012.8
20260830150101 80 198 6.0 12.0 0.00 0.00 0.00 53 1012.9
20260830145601 80 168 7.0 14.0 0.00 0.00 0.00 53 1012.8
20260830145058 80 221 6.0 12.0 0.00 0.00 0.00 56 1012.9
20260830144600 79 219 4.0 11.0 0.00 0.00 0.00 57 1012.9
20260830144058 79 261 6.0 10.0 0.00 0.00 0.00 57 1012.9
20260830143558 79 188 5.0 13.0 0.00 0.00 0.00 56 1012.9
20260830143058 79 153 7.0 17.0 0.00 0.00 0.00 56 1012.9
20260830142559 79 186 7.0 17.0 0.00 0.00 0.00 56 1012.9
20260830142056 79 203 5.0 11.0 0.00 0.00 0.00 57 1012.9
20260830141559 79 153 7.0 16.0 0.00 0.00 0.00 57 1012.9
20260830141057 79 235 7.0 15.0 0.00 0.00 0.00 55 1013.0
20260830140558 79 214 9.0 18.0 0.00 0.00 0.00 56 1013.0
20260830140114 79 189 8.0 18.0 0.00 0.00 0.00 58 1013.0
20260830135557 79 217 10.0 18.0 0.00 0.00 0.00 58 1013.1
20260830135059 79 196 8.0 15.0 0.00 0.00 0.00 59 1013.1
20260830134557 79 202 8.0 15.0 0.00 0.00 0.00 62 1013.0
20260830134059 78 151 4.0 10.0 0.00 0.00 0.00 66 1013.1
20260830133559 77 216 5.0 11.0 0.00 0.00 0.00 67 1013.1
20260830133058 77 203 3.0 10.0 0.00 0.00 0.00 66 1013.0
20260830132558 77 166 5.0 10.0 0.00 0.00 0.00 65 1013.1
20260830132058 77 166 5.0 10.0 0.00 0.00 0.00 65 1013.2
20260830131608 77 172 5.0 13.0 0.00 0.00 0.00 65 1013.2
20260830131058 76 173 6.0 11.0 0.00 0.00 0.00 65 1013.3
20260830130558 76 205 4.0 10.0 0.00 0.00 0.00 64 1013.2
20260830130100 76 214 4.0 11.0 0.00 0.00 0.00 63 1013.2
20260830125601 77 232 5.0 11.0 0.00 0.00 0.00 62 1013.2
20260830125058 77 200 3.0 10.0 0.00 0.00 0.00 62 1013.2
20260830124558 77 157 5.0 11.0 0.00 0.00 0.00 61 1013.2
20260830124101 76 235 6.0 13.0 0.00 0.00 0.00 63 1013.3
20260830123558 76 221 7.0 17.0 0.00 0.00 0.00 62 1013.4
20260830123059 77 223 6.0 13.0 0.00 0.00 0.00 61 1013.4
20260830122600 77 205 4.0 10.0 0.00 0.00 0.00 62 1013.5
20260830122059 77 202 4.0 10.0 0.00 0.00 0.00 62 1013.4
20260830121559 76 196 5.0 12.0 0.00 0.00 0.00 62 1013.4
20260830121059 76 223 7.0 14.0 0.00 0.00 0.00 62 1013.5
20260830120558 76 237 6.0 14.0 0.00 0.00 0.00 61 1013.4
20260830120106 77 220 5.0 11.0 0.00 0.00 0.00 62 1013.4
20260830115557 77 167 5.0 19.0 0.00 0.00 0.00 62 1013.4
20260830115056 77 205 8.0 19.0 0.00 0.00 0.00 60 1013.4
20260830114557 77 145 3.0 14.0 0.00 0.00 0.00 62 1013.3
20260830114100 77 223 8.0 14.0 0.00 0.00 0.00 60 1013.3
20260830113557 77 191 8.0 16.0 0.00 0.00 0.00 60 1013.3
20260830113057 78 188 7.0 16.0 0.00 0.00 0.00 61 1013.4
20260830112557 78 165 5.0 14.0 0.00 0.00 0.00 62 1013.4